{"data":{"norad_id":84006,"intl_designator":"","name":"UNKNOWN","alt_names":[],"object_type":"UNKNOWN","status":"UNKNOWN","operator":null,"country":null,"launch_date":null,"launch_site_code":null,"launch_vehicle":null,"mission":null,"orbit_class":"UNKNOWN","rcs_meters":null,"size_class":null,"mass_kg":null,"dimensions":null,"purposes":[],"wikipedia_slug":null,"has_3d_model":false,"image_url":null,"decayed_at":null,"tle_current":{"epoch":"2026-09-13T05:29:43.459008Z","epoch_age_seconds":646461,"freshness":"AGED","line1":"1 84006U          26256.22897522 -.00000032  00000+0  00000+0 0  9990","line2":"2 84006  22.7852 121.5706 6141657 156.6694 250.9979  2.16231766 90166","mean_motion":2.16231766,"eccentricity":0.6141657,"inclination_deg":22.7852,"raan_deg":121.5706,"arg_perigee_deg":156.6694,"mean_anomaly_deg":250.9979,"bstar":0,"rev_number":9016,"period_min":665.95210622291,"perigee_km":3368.5348423126,"apogee_km":34397.769592589,"semimajor_km":25261.289217451,"source":"CELESTRAK","updated_at":"2026-09-20T09:00:32.442295Z"}}}